Track NAVSTAR 43 (USA 132) now! NAVSTAR 43 (USA 132) is classified as:
1 24876U 97035A 25183.69638323 -.00000010 00000-0 00000-0 0 9992 2 24876 55.8155 112.2481 0092115 54.5514 306.2960 2.00562536204943